Theta_e
294 294 294 293 294 293 293 293 293 292 295 296 295 295 295 294 296 296 296 299 298 300 301 303 305 306 309 314 318 327 329 327 327 332 332 332 331 329 325 323 325 327 327 320
291 293 293 294 295 296 295 294 293 293 294 296 295 294 294 294 295 296 296 298 298 297 297 297 298 305 310 310 314 318 322 325 326 328 330 331 332 330 329 325 322 321 321 319
292 294 294 295 295 296 296 295 294 294 294 293 293 292 292 294 295 297 298 297 298 297 297 296 296 297 304 310 309 314 318 320 324 325 326 328 330 330 328 327 325 322 320 319
292 293 294 295 296 296 296 295 295 293 295 294 293 294 293 294 293 295 296 297 298 298 298 297 296 295 296 301 304 310 314 316 317 326 327 327 328 328 330 329 327 325 324 321
293 293 294 295 297 296 296 294 293 295 294 294 293 293 293 293 294 294 295 296 297 297 296 297 296 295 294 295 299 298 308 314 316 319 320 323 326 328 329 330 329 328 327 325
293 293 294 295 296 296 294 294 292 291 292 290 293 293 293 293 295 293 295 295 297 297 297 296 296 296 295 295 295 300 301 304 308 313 316 318 320 327 328 329 329 329 329 328
290 293 292 293 293 293 293 291 292 294 292 294 292 293 294 294 294 293 294 295 296 297 295 295 295 296 296 296 295 296 297 297 301 302 309 312 315 316 327 328 328 329 328 328
289 294 293 293 293 292 295 291 292 291 294 293 293 294 296 294 295 295 295 295 295 295 295 295 295 295 296 295 295 295 295 296 297 299 302 307 312 314 315 328 328 328 328 329
286 291 291 293 292 292 293 290 292 290 290 291 292 292 293 294 293 293 294 295 295 295 295 295 295 295 295 296 295 295 295 295 296 297 300 302 308 312 314 318 328 328 329 329
287 289 292 292 292 292 293 291 290 287 287 290 292 293 294 294 294 293 292 293 294 294 294 295 295 295 295 295 295 296 296 296 296 298 299 302 304 310 312 319 324 326 327 327
282 287 292 290 289 292 292 291 288 287 291 292 294 293 291 293 293 291 291 293 293 293 294 294 294 294 294 294 295 295 296 297 297 298 300 301 302 306 313 316 316 318 325 327
289 284 290 290 290 290 291 291 290 289 289 291 294 293 293 292 291 291 292 293 293 293 293 293 293 293 293 293 294 295 295 296 298 299 301 301 302 305 312 316 315 317 319 321
290 284 286 293 288 288 287 291 293 291 290 289 290 293 291 290 291 294 293 293 293 293 293 292 293 293 293 295 294 295 295 295 298 301 300 301 302 304 308 316 317 314 318 318
293 287 290 293 292 284 285 284 292 289 287 291 293 294 295 294 293 293 293 293 293 293 292 293 293 293 293 293 294 295 295 295 296 300 299 300 302 303 306 312 317 319 317 318
290 287 286 289 291 288 291 291 289 291 293 291 295 293 294 294 293 293 293 293 292 292 292 292 293 293 293 294 294 295 296 296 296 299 299 300 303 304 306 309 316 316 319 320
290 287 284 286 290 291 291 291 291 292 292 292 292 292 293 293 293 292 292 292 293 292 292 292 293 294 294 294 294 294 295 296 295 297 299 300 303 305 307 309 313 313 317 318
289 286 281 285 287 287 290 290 291 290 290 292 291 293 292 292 292 292 293 292 291 292 291 292 295 294 293 292 293 293 295 296 295 297 299 300 302 304 306 309 311 311 312 313
290 285 281 285 282 289 296 289 286 290 291 290 291 292 293 292 293 293 294 293 292 291 293 294 293 293 294 294 295 295 296 295 296 297 298 299 301 304 302 309 309 309 309 311
289 288 282 282 275 288 293 289 286 287 292 291 291 292 292 293 292 293 294 293 292 292 295 293 292 292 294 294 294 295 296 296 297 296 296 300 301 301 300 304 306 305 304 305
289 288 286 274 283 289 294 293 290 289 292 291 291 291 291 291 292 293 294 293 292 295 294 292 292 293 293 294 295 295 296 295 294 295 297 300 299 296 298 298 301 301 300 301
290 291 291 280 281 286 289 292 290 292 298 292 293 294 292 289 292 294 294 293 292 295 293 293 293 292 292 292 292 292 294 295 295 295 294 295 295 294 295 296 295 298 298 298
287 287 288 283 281 289 289 289 292 295 294 294 294 293 292 293 294 295 294 293 295 294 294 294 293 292 292 292 291 291 293 292 292 292 292 292 292 293 293 294 294 297 297 297
289 289 287 288 289 291 291 293 295 294 294 294 294 294 293 293 295 295 294 294 298 296 295 294 294 293 292 292 291 291 291 290 291 291 291 290 291 290 291 293 293 294 295 295
285 288 287 288 291 291 291 292 293 294 295 296 295 295 294 294 295 295 294 294 299 297 296 295 295 295 293 291 292 292 292 291 292 292 292 291 291 291 291 293 293 294 294 294
289 288 287 286 291 293 294 295 294 296 297 296 296 296 296 295 295 294 295 294 296 298 297 296 296 295 295 294 293 293 293 293 294 293 294 294 293 291 291 291 292 293 293 293
288 288 291 297 297 297 298 299 298 297 297 297 296 296 295 295 295 294 295 295 294 299 298 297 295 295 294 295 295 295 295 296 295 295 295 295 295 294 293 293 293 293 293 293
Wind_Speed
9 9 5 5 2 4 3 3 4 4 3 13 7 18 21 24 21 24 28 24 31 34 34 32 26 24 17 18 20 19 25 24 24 44 46 46 46 46 46 48 47 44 41 38
6 4 5 6 2 2 1 1 3 9 2 7 7 20 14 11 13 17 23 21 27 31 37 40 39 28 22 25 20 19 18 21 23 29 43 49 51 48 47 47 45 43 42 41
6 2 10 2 2 6 2 3 5 5 12 5 10 7 6 6 11 21 21 28 27 24 31 35 36 39 26 22 28 22 15 17 17 21 24 39 48 50 44 47 45 44 44 42
2 3 4 3 3 4 4 3 6 9 7 3 7 5 6 6 10 7 23 29 29 19 26 34 36 34 33 26 17 24 20 16 22 12 26 30 45 43 50 48 46 46 41 41
2 3 4 3 3 3 6 8 6 2 2 3 4 1 9 4 5 8 19 28 23 19 26 36 41 38 30 31 26 26 23 24 20 24 23 23 33 44 45 45 45 43 43 41
1 3 2 3 4 2 12 3 1 3 2 3 3 2 6 4 5 6 14 29 22 21 30 36 39 41 40 37 33 23 23 25 25 35 32 28 23 32 40 44 44 43 44 42
6 1 3 3 4 2 6 5 4 7 6 4 5 5 11 10 11 6 9 22 22 25 31 37 43 40 41 42 36 32 30 23 24 20 30 48 46 34 32 38 43 42 41 43
4 6 2 5 2 2 4 2 4 4 3 6 6 7 7 6 20 23 13 17 22 31 40 40 38 36 38 40 37 34 32 29 22 23 22 27 45 44 41 34 40 40 44 43
3 5 2 1 2 2 2 4 2 3 2 2 4 6 11 8 8 12 16 21 27 37 40 40 39 36 34 37 35 32 32 27 22 22 23 24 28 38 37 37 35 38 40 42
4 4 1 1 1 4 1 5 2 3 2 5 6 7 7 9 10 10 12 24 35 40 41 42 44 42 37 33 33 29 26 25 22 21 21 22 23 30 33 35 24 34 31 37
4 3 3 3 2 6 1 1 5 3 3 3 4 7 9 14 12 9 17 30 32 37 42 45 46 39 36 31 31 27 24 27 23 17 19 21 19 17 26 31 30 27 33 30
5 4 4 7 2 2 2 5 5 4 4 4 2 11 5 8 7 11 20 35 38 38 41 41 41 40 38 33 32 32 25 26 23 18 16 18 20 16 18 24 25 21 24 20
7 1 4 6 4 4 3 4 4 3 2 8 4 8 3 3 8 28 32 33 38 41 43 42 38 35 33 35 32 31 27 25 22 18 16 16 19 19 16 15 26 28 26 21
11 3 6 6 6 4 4 4 9 6 4 4 16 24 30 25 18 23 35 40 40 44 39 38 36 34 40 45 34 32 29 24 20 19 20 15 16 18 16 17 17 18 27 29
5 6 5 10 13 7 21 15 11 19 22 9 17 13 27 25 21 31 36 40 36 39 39 37 36 41 40 35 31 31 25 21 19 17 20 20 12 14 15 16 14 13 24 31
5 3 2 5 11 11 20 22 18 25 23 23 29 32 33 46 41 31 34 33 36 37 38 38 38 37 35 33 30 28 22 20 17 16 18 18 16 9 11 14 12 11 16 22
6 3 2 6 2 7 12 10 12 7 7 9 12 17 14 12 15 21 29 37 35 35 40 38 39 34 36 34 30 25 20 18 17 17 17 17 13 12 9 8 10 10 10 11
6 5 2 4 5 1 6 1 5 8 7 17 11 15 20 21 30 34 35 26 27 40 41 37 34 32 30 28 23 18 14 15 15 17 17 15 12 11 9 7 8 9 10 13
4 4 1 2 2 10 9 3 6 7 8 14 21 16 21 23 25 23 17 21 36 35 35 32 26 25 25 24 20 14 10 10 12 14 14 13 13 9 8 8 10 11 15 20
5 3 4 2 2 6 5 3 8 4 5 7 18 12 12 8 6 8 34 35 33 32 32 26 22 22 22 20 17 14 12 12 12 11 10 12 11 6 7 9 13 15 17 22
5 4 13 4 4 10 14 8 4 5 6 11 19 7 5 4 10 29 33 32 29 29 28 19 21 22 21 17 13 10 10 9 9 8 7 7 5 5 9 14 18 22 28 33
9 10 6 4 4 11 15 10 9 6 3 8 11 15 23 27 23 25 29 28 28 26 23 20 21 19 17 17 13 9 7 6 6 4 3 1 3 7 12 18 24 29 33 36
4 9 7 14 10 4 29 14 23 6 11 21 25 32 31 23 20 27 24 23 24 21 19 19 17 17 14 14 14 12 12 9 8 7 7 7 8 13 17 22 28 33 35 38
5 12 4 2 10 25 36 40 40 35 39 42 34 30 22 21 20 23 17 20 20 17 12 12 14 16 14 13 12 15 16 15 16 19 18 16 15 17 21 26 29 31 31 33
7 16 6 8 20 22 43 42 39 34 27 24 21 19 18 22 24 19 13 17 16 13 5 7 11 14 16 17 18 18 17 17 20 22 22 21 19 19 21 22 21 22 25 25
14 8 7 11 16 16 22 27 23 18 23 18 20 25 24 23 23 18 16 14 16 12 3 3 8 13 17 20 23 19 18 18 19 18 17 17 16 15 14 17 19 16 14 12
Wind_Direction
33 55 19 306 21 169 183 198 272 260 298 340 306 301 301 312 329 331 331 347 2 6 6 351 336 288 326 341 320 279 261 252 260 245 237 238 239 238 235 233 234 234 235 234
43 44 284 269 288 182 168 274 296 295 269 344 331 301 295 306 316 318 325 344 1 8 10 15 12 356 266 309 330 306 274 259 248 261 252 245 245 242 242 237 234 235 235 236
91 281 314 277 336 28 54 69 340 287 324 6 330 297 314 303 333 352 350 336 344 354 359 4 7 10 355 290 316 331 318 282 255 253 267 261 248 244 243 243 239 235 234 234
90 320 312 328 48 22 4 159 305 304 9 314 18 293 303 290 314 318 333 339 337 334 346 350 354 355 357 352 327 299 309 301 288 246 262 257 239 234 247 247 245 241 235 232
254 339 328 347 352 357 261 305 289 256 115 36 355 302 271 294 308 317 326 328 326 328 339 341 343 342 341 346 349 345 303 294 296 286 263 282 245 244 249 249 245 247 243 237
306 321 275 300 325 292 275 330 95 86 125 36 186 107 276 271 246 292 321 325 317 316 326 329 331 328 329 332 332 338 326 310 287 275 280 278 310 248 243 238 241 248 247 243
337 287 311 315 311 297 354 9 352 2 8 249 173 328 252 276 278 233 296 319 318 317 323 329 329 324 319 322 320 317 316 320 303 302 274 276 274 285 249 245 244 241 248 248
62 330 29 353 20 284 356 51 127 217 284 287 310 224 254 236 292 298 299 319 322 325 328 328 329 324 319 318 317 312 309 311 310 298 298 270 277 280 279 241 246 251 251 253
79 285 321 360 324 10 326 48 194 119 99 321 259 278 284 287 285 290 311 322 326 328 329 329 330 325 320 320 320 319 309 303 304 302 294 292 273 276 271 275 250 240 248 253
217 331 168 294 306 23 24 167 63 26 11 299 281 286 246 284 283 302 307 313 321 324 324 326 324 325 321 315 320 319 315 302 293 295 292 299 287 262 269 253 249 242 239 250
136 104 270 48 187 174 142 342 45 115 150 211 294 253 209 247 264 283 303 311 310 310 315 319 322 320 321 312 316 315 320 320 291 284 289 294 295 280 257 261 263 260 254 235
198 143 260 236 222 318 290 203 165 130 247 234 260 267 227 229 260 292 291 305 309 308 311 313 313 320 322 318 311 313 311 325 305 281 284 297 293 289 256 253 261 260 257 253
182 270 336 339 0 357 215 197 199 101 120 206 165 260 312 294 286 303 304 307 308 311 313 317 316 314 308 309 305 307 302 318 318 291 290 295 297 291 269 256 250 252 253 258
166 170 197 207 220 132 264 204 201 161 182 199 228 281 286 290 299 300 303 306 309 314 314 317 319 314 310 314 303 299 296 304 315 303 304 295 293 294 287 268 265 261 252 249
154 212 187 256 277 247 267 254 205 215 227 223 262 265 275 287 300 296 296 299 306 312 315 320 319 319 320 319 316 312 295 295 304 300 308 308 289 287 283 275 267 243 246 234
173 257 129 263 260 277 275 263 240 239 242 253 259 271 271 278 281 285 292 302 311 312 316 318 321 325 327 323 321 315 301 296 295 296 304 311 298 280 273 270 267 258 232 245
153 158 42 266 5 312 284 252 206 190 216 217 222 245 277 286 289 291 302 305 306 312 318 321 331 330 324 317 312 309 304 296 290 296 303 307 306 284 264 261 268 254 226 239
141 118 101 277 357 12 253 151 172 203 237 207 246 266 275 279 291 300 309 306 310 320 325 326 327 324 328 332 332 318 303 298 298 303 306 308 299 282 267 235 238 234 198 188
150 120 1 241 203 298 290 165 151 177 277 211 222 249 265 294 305 308 335 321 322 326 327 324 324 329 330 336 342 338 324 308 305 311 314 308 292 276 259 221 210 195 190 174
161 92 145 79 178 241 227 180 166 158 291 191 187 218 252 313 336 305 329 331 332 332 329 327 334 333 329 333 332 336 332 330 323 313 312 299 285 262 227 207 185 175 175 164
145 174 215 204 256 274 250 211 170 85 253 192 193 232 268 198 265 313 326 335 336 336 338 338 339 341 343 346 338 336 329 324 316 314 315 295 276 236 201 182 164 159 153 146
166 162 190 153 201 281 166 131 183 214 181 189 240 260 311 313 310 321 325 335 339 345 351 352 352 353 354 358 358 352 339 350 356 351 335 232 183 188 177 168 158 152 150 145
223 193 181 191 209 229 191 219 220 239 266 273 285 297 306 300 309 321 326 342 345 351 357 359 5 6 12 18 29 34 44 38 41 58 83 107 133 153 156 153 151 145 144 138
247 191 220 109 236 244 251 245 253 262 274 286 284 289 292 286 309 319 320 341 349 355 6 26 42 44 45 47 50 55 58 68 78 81 82 92 112 127 135 137 136 138 141 142
196 154 185 265 269 264 268 260 265 272 277 275 269 274 290 284 300 304 305 333 345 352 22 65 66 68 68 70 70 71 77 84 87 93 98 101 100 103 110 118 122 125 129 138
185 175 188 244 218 230 264 279 278 243 269 281 272 280 289 293 295 287 286 298 329 332 276 78 107 107 97 91 85 78 76 70 67 80 96 106 112 121 131 137 136 135 131 135